Skip Page Navigation
NASA JPL Caltech
NASA Logo - Jet Propulsion Laboratory + View the NASA Portal
+ Center for Near-Earth Object Studies
JPL Home Earth Solar System Stars & Galaxies Technology
JPL Solar System Dynamics
BODIES ORBITS EPHEMERIDES TOOLS PHYSICAL DATA DISCOVERY FAQ SITE MAP
JPL Small-Body Database Browser
Search: [ help ]  
344138 (2000 ES153)
Classification: Main-belt Asteroid          SPK-ID: 2344138
Ephemeris | Orbit Diagram | Orbital Elements | Mission Design | Physical Parameters | Discovery Circumstances | Close-Approach Data ]

[ show orbit diagram ]
Orbital Elements at Epoch 2459000.5 (2020-May-31.0) TDB
Reference: JPL 16 (heliocentric ecliptic J2000)
 Element Value Uncertainty (1-sigma)   Units 
e .1452344302189005 5.3554e-08  
a 2.766712423607201 3.051e-08 au
q 2.364890521185056 1.4733e-07 au
i 9.631545757313367 7.2876e-06 deg
node 176.4516402459152 3.9846e-05 deg
peri 307.3263114763124 4.9134e-05 deg
M 182.5794240711482 3.125e-05 deg
tp 2459828.911160499651
(2022-Sep-06.41116050)
0.000152 TDB
period 1680.909985882742
4.60
2.7804e-05
7.612e-08
d
yr
n .214169707493851 3.5426e-09 deg/d
Q 3.168534326029347 3.4941e-08 au
  Orbit Determination Parameters
   # obs. used (total)      243  
   data-arc span      7055 days (19.32 yr)  
   first obs. used      2000-03-06  
   last obs. used      2019-06-30  
   planetary ephem.      DE431  
   SB-pert. ephem.      SB431-N16  
   condition code      0  
   norm. resid. RMS      .55369  
   source      ORB  
   producer      Otto Matic  
   solution date      2019-Sep-24 06:29:17  

Additional Information
 Earth MOID = 1.3939 au 
 Jupiter MOID = 1.93427 au 
 T_jup = 3.303 
[ show covariance matrix ]

Ephemeris | Orbit Diagram | Orbital Elements | Mission Design | Physical Parameters | Discovery Circumstances | Close-Approach Data ]

Physical Parameter Table
Parameter Symbol Value Units Sigma Reference Notes
absolute magnitude H 16.1   n/a MPO437458  

344138 (2000 ES153)          Discovered 2000-Mar-06 by NEAT at Haleakala
Reference: 20121128/Numbers.arcLast Updated: 2012-12-03

[ show close-approach data ]
Ephemeris | Orbit Diagram | Orbital Elements | Mission Design | Physical Parameters | Discovery Circumstances | Close-Approach Data ]
ABOUT SSD CREDITS/AWARDS PRIVACY/COPYRIGHT GLOSSARY LINKS
FirstGov 2020-Aug-09 04:08 UT
(server date/time)  
NASA Home Page
Site Manager:   Ryan S. Park
Webmaster  Alan B. Chamberlin